Location: Tucson
(32.2217°N, 110.9265°W)
Time: 07:06:05
(UTC-07:00)

N. Korean satellite - Visible Passes

Search period start: 06 October 2022 00:00
Search period end: 16 October 2022 00:00
Orbit: 425 x 467 km, 97.3° (Epoch: 05 October)

Date Brightness Start Highest point End Pass type
(mag) Time Alt. Az. Time Alt. Az. Time Alt. Az.
06 Oct 6.4 05:48:57 10° N 05:52:08 51° WNW 05:55:18 10° SSW visible
07 Oct 8.0 05:13:01 10° NNE 05:16:05 36° E 05:19:07 10° SSE visible
08 Oct 10.0 04:39:01 10° E 04:39:48 11° E 04:40:36 10° ESE visible
09 Oct 6.4 05:33:08 10° NNE 05:36:24 83° ESE 05:39:41 10° S visible
10 Oct 9.1 04:57:34 10° NE 05:00:07 21° E 05:02:41 10° SSE visible
11 Oct 6.6 05:53:20 10° N 05:56:28 44° WNW 05:59:36 10° SSW visible
12 Oct 7.7 05:17:01 10° NNE 05:20:10 42° E 05:23:18 10° S visible
13 Oct 9.8 04:42:13 10° ENE 04:43:38 12° E 04:45:04 10° ESE visible
14 Oct 6.3 05:36:37 10° N 05:39:55 86° WNW 05:43:14 10° SSW visible
15 Oct 8.9 05:00:40 10° NE 05:03:23 23° E 05:06:06 10° SSE visible
